This is the latest recevied weather packets stored in our database for station/object OE2ATN. If no packets are shown the sender has not sent any weather packets the latest 1 day(s).
| Time | Temp. | Humidity | Pressure | Rain* | Wind** | Luminosity | Snow |
|---|---|---|---|---|---|---|---|
| 1778010306 | 11.67° C | 69% | 1015.7 hPa | 0 mm | 0.45 m/s, 303° | - | - |
| 1778010007 | 11.67° C | 66% | 1015.6 hPa | 0 mm | 0.45 m/s, 265° | - | - |
| 1778009707 | 12.22° C | 66% | 1015.4 hPa | 0 mm | 0 m/s | - | - |
| 1778009407 | 12.22° C | 64% | 1015.3 hPa | 0 mm | 0.45 m/s, 307° | - | - |
| 1778009108 | 12.78° C | 63% | 1015.2 hPa | 0 mm | 0 m/s | - | - |
| 1778008806 | 13.33° C | 62% | 1015.1 hPa | 0 mm | 0 m/s | - | - |
| 1778008506 | 13.33° C | 62% | 1015.2 hPa | 0 mm | 0.45 m/s, 316° | - | - |
| 1778008206 | 13.33° C | 63% | 1015.1 hPa | 0 mm | 0.45 m/s, 10° | - | - |
| 1778007906 | 13.33° C | 62% | 1015 hPa | 0 mm | 1.34 m/s, 286° | - | - |
| 1778007606 | 13.33° C | 62% | 1014.9 hPa | 0 mm | 0 m/s | - | - |
| 1778007306 | 13.33° C | 62% | 1015 hPa | 0 mm | 0.89 m/s, 306° | - | - |
| 1778007005 | 13.89° C | 60% | 1014.8 hPa | 0 mm | 0.89 m/s, 290° | - | - |
| 1778006706 | 13.89° C | 60% | 1014.8 hPa | 0 mm | 0 m/s | - | - |
| 1778006406 | 13.89° C | 61% | 1014.7 hPa | 0 mm | 0.45 m/s, 309° | - | - |
| 1778006106 | 13.89° C | 62% | 1014.6 hPa | 0 mm | 0.45 m/s, 6° | - | - |
| 1778005805 | 13.89° C | 60% | 1014.5 hPa | 0 mm | 0.89 m/s, 283° | - | - |
| 1778005505 | 14.44° C | 57% | 1014.7 hPa | 0 mm | 0.45 m/s, 276° | - | - |
| 1778005205 | 14.44° C | 59% | 1014.5 hPa | 0 mm | 0 m/s | - | - |
| 1778004904 | 15.56° C | 56% | 1014.4 hPa | 0 mm | 0.45 m/s, 296° | - | - |
| 1778004605 | 15.56° C | 55% | 1014.4 hPa | 0 mm | 0.45 m/s, 307° | - | - |
| 1778004305 | 15.56° C | 54% | 1014.3 hPa | 0 mm | 0.45 m/s, 309° | - | - |
| 1778004008 | 16.11° C | 53% | 1014.3 hPa | 0 mm | 0.45 m/s, 305° | - | - |
| 1778003704 | 16.11° C | 53% | 1014.3 hPa | 0 mm | 0.89 m/s, 302° | - | - |
| 1778003404 | 16.67° C | 52% | 1014.3 hPa | 0 mm | 0.45 m/s, 302° | - | - |
| 1778003104 | 16.67° C | 51% | 1014.3 hPa | 0 mm | 0 m/s | - | - |
* Rain latest hour (hover to see other rain measurements)
** Current wind speed in m/s (hover to see current wind gust speed)